User: anonymous   Login
Location: Newark
(40.7360°N, 74.1730°W)
Time: 07:15:26
(UTC-05:00)
Language:

ISS - Orbit

View from above orbital plane
View from above orbital plane
View from above satellite
View from above satellite

Ground track
Ground track

The orbit data is extracted from the following two-line orbital elements,

1 25544U 98067A   14328.13802450  .00027235  00000-0  45897-3 0  4520
2 25544 051.6476 026.5835 0007001 063.1448 036.0150 15.51454279916143
Epoch (UTC): 24 November 2014 03:18:45
Eccentricity: 0.0007001
inclination: 51.6476°
perigee height: 408 km
apogee height: 417 km
right ascension of ascending node: 26.5835°
argument of perigee: 63.1448°
revolutions per day: 15.51454279
mean anomaly at epoch: 36.0150°
orbit number at epoch: 91614

The dashed part of the orbit path shows where the satellite is in the earth's shadow,  

DLR